Regional Weather Roundup
Issued by NWS Upton, NY

Current Version | Previous Version | Text Only | Print | Product List | Glossary On
Versions: 1 2 3 4 5 6 7 8 9 10 11 12 13 14 15 16 17 18 19 20 21 22 23 24 25 26 27 28 29 30 31 32 33 34 35 36 37 38 39 40 41 42 43 44 45 46 47 48 49 50
000 ASUS41 KOKX 010104 RWROKX REGIONAL WEATHER ROUNDUP NATIONAL WEATHER SERVICE NEW YORK NY 900 PM EDT SAT APR 30 2016 NOTE: "FAIR" INDICATES FEW OR NO CLOUDS BELOW 12,000 FEET WITH NO SIGNIFICANT WEATHER AND/OR OBSTRUCTIONS TO VISIBILITY. NYZ071-072-176-178-NJZ106-104-010200- NEW YORK CITY METRO AREA CITY SKY/WX TMP DP RH WIND PRES REMARKS CENTRAL PARK CLEAR 52 35 52 VRB3 30.27R LAGUARDIA APRT PTCLDY 52 38 58 S9 30.24S KENNEDY INTL PTCLDY 50 37 61 S7 30.27R NEWARK/LIBERTY PTCLDY 55 35 47 SE7 30.24R BRNX BOT. GARD N/A 50 37 62 SE6 30.24S TETERBORO CLEAR 53 31 42 S6 30.23R $$ NYZ177-179-078>081-010200- LONG ISLAND NEW YORK CITY SKY/WX TMP DP RH WIND PRES REMARKS FARMINGDALE CLEAR 48 37 65 S7 30.26S ISLIP PTCLDY 48 37 65 S7 30.26S SHIRLEY CLEAR 47 37 68 S3 30.27S RIVERHEAD N/A 45 39 81 CALM 30.26S WESTHAMPTON CLEAR 43 35 73 S3 30.28S EAST HAMPTON FAIR 45 37 73 S3 30.27S MONTAUK POINT N/A 46 36 68 S5 30.29S $$ NYZ052-065-067-010200- HUDSON VALLEY CITY SKY/WX TMP DP RH WIND PRES REMARKS WHITE PLAINS CLEAR 49 38 65 S7 30.24R NEWBURGH MOCLDY 57 39 51 SW7 30.21R MONTGOMERY CLOUDY 55 42 61 S7 30.19S POUGHKEEPSIE PTCLDY 59 36 42 S6 30.19R ALBANY MOCLDY 57 37 47 S5 30.17S $$ NJZ001-105-106-008-010-013-015-019>022-104-010200- NEW JERSEY CITY SKY/WX TMP DP RH WIND PRES REMARKS NEWARK/LIBERTY PTCLDY 55 35 47 SE7 30.24R TETERBORO CLEAR 53 31 42 S6 30.23R CALDWELL CLEAR 54 30 40 CALM 30.23R MORRISTOWN CLEAR 48 37 66 CALM 30.23S SOMERVILLE CLEAR 52 35 52 SE3 30.21R SUSSEX MOCLDY 54 41 61 CALM 30.22R ANDOVER N/A 51 43 74 CALM 30.21R TRENTON CLEAR 50 35 56 SE7 30.22S MILLVILLE CLOUDY 50 37 61 SE8 30.24S ATLANTIC CITY CLEAR 48 39 71 SE5 30.24F WRIGHTSTOWN CLEAR 47 37 67 SE5 30.21F TOMS RIVER CLEAR 45 34 65 SE3 30.25F BELMAR CLEAR 48 37 65 SE5 30.26S $$ PAZ047>061-062-071-010200- EASTERN PENNSYLVANIA CITY SKY/WX TMP DP RH WIND PRES REMARKS PHILADELPHIA CLOUDY 55 36 48 SE10 30.23S ALLENTOWN CLOUDY 57 41 55 SE3 30.20F SCRANTON CLOUDY 54 41 61 CALM 30.18S $$ CTZ002-004>006-009-010-012-RIZ004-006-007-MAZ004-011-015-010200- SOUTHERN NEW ENGLAND IN CT CITY SKY/WX TMP DP RH WIND PRES REMARKS BRADLEY INTL PTCLDY 53 32 44 S13 30.21R HARTFORD PTCLDY 52 34 50 S9 30.24R DANBURY CLEAR 52 38 58 S5 30.24R WTRBRY/OXFORD PTCLDY 48 36 61 S8 30.25R BRIDGEPORT CLEAR 51 38 60 S8 30.26R MERIDEN CLEAR 50 36 58 S8 30.25R NEW HAVEN PTCLDY 48 36 63 S9 30.26R CHESTER FAIR 46 36 66 S3 30.26R GROTON PTCLDY 47 42 83 S9 30.27R WILLIMANTIC PTCLDY 50 33 52 S7 30.25R IN RI CITY SKY/WX TMP DP RH WIND PRES REMARKS PROVIDENCE MOCLDY 46 35 65 S10 30.27S BLOCK ISLAND PTCLDY 44 34 67 S3 30.28S WESTERLY PTCLDY 47 35 63 S5 30.28S IN MA CITY SKY/WX TMP DP RH WIND PRES REMARKS BOSTON PTCLDY 50 33 52 S13 30.25R WORCESTER CLEAR 49 31 49 S10 30.22R WESTFIELD PTCLDY 54 36 50 S10 30.20R PROVINCETOWN CLEAR 45 34 65 S7 30.28R NANTUCKET PTCLDY 43 35 73 E6 30.26R $$ ANZ330-335-338-340-345-350-353-355-010200- COASTAL MARINE OBSERVATIONS STATION/POSITION TIME SKY/WX TEMP WIND PRES VSBY WAVE AIR SEA DIR/SP/G HT/PER (UTC) (F) (DEG/KT/KT) (MB) (MI) (FT/S) NY HARB ENTRANCE 2350 49 52 180/ 10/ 10 1024.3 4/ 7 20S FIRE ISLAND 2350 47 49 140/ 6/ 8 1024.6 4/ 8 GREAT SOUTH BAY 0015 49 58 180/ 6/ 8 N/A 23 SSW MONTAUK P 2350 46 48 180/ 6/ 6 1024.8 4/ 7 15 E BARNEGAT LI 0022 51 N/A 5/ 8 HUDSON CANYON 2350 48 48 1023.9 5/ 8 KINGS POINT 0000 51 55 1023.7 EXECUTION ROCKS NOT AVBL CENTRAL LI SOUND 0000 50 160/ 12/ 14 N/A 1/ 2 EASTERN LI SOUND 0000 47 47 150/ 8/ 10 N/A ROBBINS REEF 0000 53 1023.2 $$ >>>>>>>>>>>>>>>>>>>>>>>>>>>> KEY <<<<<<<<<<<<<<<<<<<<<<<<<<< > < > SKY/WX - SKY CONDITION/PRESENT WEATHER < > TMP - TEMPERATURE IN FAHRENHEIT < > DP - DEWPOINT IN FAHRENHEIT < > RH - RELATIVE HUMIDITY IN PERCENT < > WIND - DIRECTION AND SPEED IN MPH < > PRES - MEAN SEA LEVEL PRESSURE IN INCHES OF HG < > WCI - WIND CHILL INDEX < > VSB - VISIBILITY IN MILES < > HX - HEAT INDEX < > TC - TEMPERATURE IN CELSIUS < > VRB - VARIABLE WIND DIRECTION < > < >>>>>>>>>>>>>>>>>>>>>>>>>>>> KEY <<<<<<<<<<<<<<<<<<<<<<<<<<<

USA.gov is the U.S. government's official web portal to all federal, state and local government web resources and services.